Location: Peterborough
(44.3048°N, 78.3199°W)
Time: 03:38:27
(UTC-04:00)

ISS - Pass Details

Date: 20 May 2025
Orbit: 415 x 418 km, 51.6° (Epoch: 20 June)

Event Time Altitude Azimuth Distance (km) Brightness Sun altitude
Rises 23:58:56 0° 299° (WNW) 2,359 0.8 -23.7°
Reaches altitude 10° 00:01:03 10° 296° (WNW) 1,492 -0.4 -23.8°
Enters shadow 00:02:37 25° 288° (WNW) 881 -1.8 -23.9°
